Location: Brookfield Village
(37.7352°N, 122.1861°W)
Time: 06:07:30
(UTC+00:00)

Cosmos 2278 Rocket - Pass Details

Date: 03 August 2024
Orbit: 841 x 844 km, 71.0° (Epoch: 14 September)

Event Time Altitude Azimuth Distance (km) Brightness Sun altitude
Rises 12:06:36 0° 341° (NNW) 3,403 5.6 -12.7°
Reaches altitude 10° 12:09:07 10° 346° (NNW) 2,465 4.9 -12.2°
Maximum altitude 12:14:40 57° 65° (ENE) 989 3.0 -11.3°
Drops below altitude 10° 12:20:12 10° 143° (SE) 2,453 4.7 -10.4°
Sets 12:22:41 0° 148° (SSE) 3,385 5.4 -10.0°
